Amarillo, TX

8:09 PM CDT on May 24, 2017 (GMT -0500)
Amarillo International

Weather History for KAMA - May, 2013

Change the Weather History Date:

Tuesday, May 21, 2013

  Actual Average Record
Temperature  
Mean Temperature 61 °F 67 °F  
Max Temperature 72 °F 81 °F 98 °F (1966)
Min Temperature 50 °F 54 °F 37 °F (1967)
Degree Days  
Heating Degree Days 4 2  
Month to date heating degree days 94 70  
Since 1 July heating degree days 3736 4158  
Cooling Degree Days 0 4  
Month to date cooling degree days 89 53  
Year to date cooling degree days 134 74  
Growing Degree Days 11 (Base 50)    
Moisture  
Dew Point 44 °F    
Average Humidity 61    
Maximum Humidity 86    
Minimum Humidity 35    
Precipitation  
Precipitation 0.44 in 0.09 in 1.78 in (1979)
Month to date precipitation 1.33 1.32  
Year to date precipitation 4.82 5.39  
Snow  
Snow 0.00 in 0.00 in T in (2007)
Month to date snowfall T 0.2  
Since 1 July snowfall 29.7 17.8  
Snow Depth 0.00 in    
Sea Level Pressure  
Sea Level Pressure 29.88 in    
Wind  
Wind Speed 11 mph (NW)    
Max Wind Speed 26 mph    
Max Gust Speed 36 mph    
Visibility 9 miles    
Events Rain , Thunderstorm    
T = Trace of Precipitation, MM = Missing Value Source: NWS Daily Summary

Daily Weather History Graph

Daily Weather History Graph

Search for Another Location

Airport or City:

Trip Planner

Search our weather history database for the weather conditions in past years. The results will help you decide how hot, cold, wet, or windy it might be!

Date:

Astronomy

May. 21, 2013 Rise Set
Actual Time 6:38 AM CDT 8:48 PM CDT
Civil Twilight 6:09 AM CDT 9:17 PM CDT
Nautical Twilight 5:34 AM CDT 9:52 PM CDT
Astronomical Twilight 4:57 AM CDT 10:30 PM CDT
Moon 5:11 PM CDT (5/21) 3:59 AM CDT (5/21)
Length of Visible Light 15h 07m
Length of Day
14h 10m
Waxing Gibbous, 84% of the Moon is Illuminated
May 21
Waxing Gibbous
May 24
Full
May 31
Last Quarter
Jun 8
New
Jun 16
First Quarter

Hourly Weather History & Observations

Time (CDT) Temp. Dew Point Humidity Pressure Visibility Wind Dir Wind Speed Gust Speed Precip Events Conditions
12:53 AM 64.0 °F 39.9 °F 41% 29.77 in 10.0 mi NNE 18.4 mph - N/A   Partly Cloudy
1:53 AM 62.1 °F 39.9 °F 44% 29.78 in 10.0 mi NE 17.3 mph - N/A   Partly Cloudy
2:53 AM 60.1 °F 41.0 °F 49% 29.80 in 10.0 mi NNE 15.0 mph - N/A   Partly Cloudy
3:53 AM 55.9 °F 39.9 °F 55% 29.81 in 10.0 mi NNE 12.7 mph - N/A   Clear
4:53 AM 55.9 °F 39.9 °F 55% 29.79 in 10.0 mi North 17.3 mph - N/A   Clear
5:53 AM 55.0 °F 39.9 °F 57% 29.81 in 10.0 mi North 12.7 mph - N/A   Clear
6:53 AM 55.9 °F 39.0 °F 53% 29.81 in 10.0 mi North 19.6 mph - N/A   Partly Cloudy
7:44 AM 55.4 °F 42.8 °F 63% 30.02 in 10.0 mi WNW 15.0 mph 21.9 mph 0.00 in Rain Light Rain
7:53 AM 54.0 °F 43.0 °F 66% 29.86 in 10.0 mi NNW 20.7 mph 26.5 mph 0.01 in Rain , Thunderstorm Thunderstorms and Rain
8:02 AM 53.6 °F 42.8 °F 67% 29.97 in 5.0 mi NNW 21.9 mph 27.6 mph 0.03 in Rain , Thunderstorm Thunderstorms and Rain
8:42 AM 51.8 °F 44.6 °F 76% 30.09 in 7.0 mi SSW 25.3 mph 35.7 mph N/A Rain , Thunderstorm Thunderstorms and Rain
8:53 AM 52.0 °F 45.0 °F 77% 29.97 in 4.0 mi West 18.4 mph 27.6 mph N/A Rain , Thunderstorm Thunderstorms and Rain
8:58 AM 51.8 °F 44.6 °F 76% 30.07 in 2.5 mi West 17.3 mph - 0.04 in Rain , Thunderstorm Thunderstorms and Rain
9:13 AM 51.8 °F 46.4 °F 82% 30.06 in 3.0 mi WNW 11.5 mph - N/A Rain , Thunderstorm Thunderstorms and Rain
9:53 AM 50.0 °F 46.0 °F 86% 29.99 in 4.0 mi West 11.5 mph - N/A Rain , Thunderstorm Thunderstorms and Rain
10:10 AM 51.8 °F 46.4 °F 82% 30.03 in 5.0 mi North 13.8 mph - 0.05 in Rain Rain
10:21 AM 50.0 °F 46.4 °F 87% 30.01 in 10.0 mi NE 12.7 mph 20.7 mph 0.06 in Rain Light Rain
10:53 AM 52.0 °F 46.9 °F 83% 29.91 in 10.0 mi ENE 17.3 mph - 0.06 in Rain Light Rain
11:53 AM 55.9 °F 46.9 °F 72% 29.88 in 10.0 mi WNW 11.5 mph - 0.00 in   Scattered Clouds
12:53 PM 57.9 °F 46.9 °F 67% 29.90 in 10.0 mi NW 12.7 mph - N/A   Clear
1:53 PM 62.1 °F 44.1 °F 52% 29.89 in 10.0 mi NNW 9.2 mph - N/A   Partly Cloudy
2:53 PM 66.9 °F 44.1 °F 44% 29.87 in 10.0 mi NNE 9.2 mph - N/A   Clear
3:53 PM 69.1 °F 44.1 °F 40% 29.85 in 10.0 mi WNW 3.5 mph - N/A   Clear
4:53 PM 71.1 °F 44.1 °F 38% 29.83 in 10.0 mi West 5.8 mph - N/A   Clear
5:53 PM 72.0 °F 43.0 °F 35% 29.81 in 10.0 mi West 8.1 mph - N/A   Clear
6:53 PM 71.1 °F 44.1 °F 38% 29.79 in 10.0 mi SSW 5.8 mph - N/A   Clear
7:53 PM 70.0 °F 45.0 °F 41% 29.80 in 10.0 mi SSW 9.2 mph - N/A   Clear
8:53 PM 64.0 °F 46.9 °F 54% 29.82 in 10.0 mi SSW 6.9 mph - N/A   Clear
9:53 PM 63.0 °F 46.9 °F 56% 29.84 in 10.0 mi South 6.9 mph - N/A   Clear
10:53 PM 61.0 °F 46.9 °F 60% 29.86 in 10.0 mi South 8.1 mph - N/A   Clear
11:53 PM 59.0 °F 46.9 °F 64% 29.85 in 10.0 mi SSW 8.1 mph - N/A   Clear